{"data":{"norad_id":48694,"intl_designator":"2021-044BJ","name":"STARLINK-2748","alt_names":[],"object_type":"PAYLOAD","status":"ACTIVE","operator":null,"country":"US","launch_date":"2021-05-26","launch_site_code":"AFETR","launch_vehicle":null,"mission":null,"orbit_class":"UNKNOWN","rcs_meters":null,"size_class":null,"mass_kg":null,"dimensions":null,"purposes":["comms"],"wikipedia_slug":null,"has_3d_model":false,"image_url":null,"decayed_at":null,"tle_current":{"epoch":"2026-05-25T02:40:32.943360Z","epoch_age_seconds":68966,"freshness":"FRESH","line1":"1 48694U 21044BJ  26145.11149240 -.00000205  00000+0  51745-5 0  9996","line2":"2 48694  53.1594  83.0416 0001521  88.3304 271.7871 15.31703479276027","mean_motion":15.31703479,"eccentricity":0.0001521,"inclination_deg":53.1594,"raan_deg":83.0416,"arg_perigee_deg":88.3304,"mean_anomaly_deg":271.7871,"bstar":5.1745e-6,"rev_number":27602,"period_min":94.012974426364,"perigee_km":469.68791191372,"apogee_km":471.7713371409,"semimajor_km":6848.8666245273,"source":"CELESTRAK","updated_at":"2026-05-25T13:38:16.763470Z"}}}